Franklin, VA

4:15 AM EDT on April 20, 2018 (GMT -0400)
Franklin Municipal-Rose

Weather History for KFKN - December, 2011

Change the Weather History Date:

Saturday, December 17, 2011

  Actual Average (KSFQ) Record (KSFQ)
Temperature  
Mean Temperature 40 °F -  
Max Temperature 46 °F 51 °F 71 °F (2000)
Min Temperature 32 °F 32 °F 11 °F (1951)
Degree Days  
Heating Degree Days 26    
Moisture  
Dew Point 36 °F    
Average Humidity 83    
Maximum Humidity 100    
Minimum Humidity 61    
Precipitation  
Precipitation 0.00 in - - ()
Sea Level Pressure  
Sea Level Pressure 30.19 in    
Wind  
Wind Speed 3 mph (North)    
Max Wind Speed 12 mph    
Max Gust Speed 16 mph    
Visibility 10 miles    
Events      
Averages and records for this station are not official NWS values.
T = Trace of Precipitation, MM = Missing Value Source: NWS Daily Summary

Daily Weather History Graph

Daily Weather History Graph

Search for Another Location

Airport or City:

Astronomy

Dec. 17, 2011 Rise Set
Actual Time 7:13 AM EST 4:53 PM EST
Civil Twilight 6:44 AM EST 5:22 PM EST
Nautical Twilight 6:12 AM EST 5:54 PM EST
Astronomical Twilight 5:41 AM EST 6:26 PM EST
Moon No Moon Rise 11:38 AM EST (12/17)
Length of Visible Light 10h 37m
Length of Day
9h 39m
Waning Gibbous, 54% of the Moon is Illuminated
Dec 17
Waning Gibbous
Dec 17
Last Quarter
Dec 24
New
Jan 1
First Quarter
Jan 9
Full

Hourly Weather History & Observations

Time (EST) Temp. Windchill Dew Point Humidity Pressure Visibility Wind Dir Wind Speed Gust Speed Precip Events Conditions
12:15 AM 42.8 °F - 42.8 °F 100% 30.20 in 5.0 mi Calm Calm - N/A   Overcast
12:35 AM 42.8 °F - 42.8 °F 100% 30.17 in 3.0 mi Calm Calm - N/A   Overcast
1:15 AM 42.8 °F 40.1 °F 42.8 °F 100% 30.17 in 4.0 mi North 4.6 mph - N/A   Overcast
1:35 AM 42.8 °F 39.3 °F 42.8 °F 100% 30.16 in 7.0 mi North 5.8 mph - N/A   Overcast
2:15 AM 41.0 °F - 41.0 °F 100% 30.15 in 10.0 mi Calm Calm - N/A   Overcast
2:35 AM 39.2 °F 37.0 °F 39.2 °F 100% 30.16 in 10.0 mi NNW 3.5 mph - N/A   Overcast
2:55 AM 39.2 °F 37.0 °F 39.2 °F 100% 30.16 in 10.0 mi North 3.5 mph - N/A   Overcast
3:15 AM 39.2 °F - 39.2 °F 100% 30.17 in 10.0 mi Calm Calm - N/A   Overcast
3:35 AM 39.2 °F - 39.2 °F 100% 30.16 in 10.0 mi Calm Calm - N/A   Overcast
3:55 AM 39.2 °F - 39.2 °F 100% 30.16 in 10.0 mi Calm Calm - N/A   Overcast
4:15 AM 41.0 °F - 41.0 °F 100% 30.16 in 10.0 mi Calm Calm - N/A   Overcast
4:35 AM 39.2 °F - 39.2 °F 100% 30.16 in 10.0 mi Calm Calm - N/A   Overcast
4:55 AM 39.2 °F - 39.2 °F 100% 30.16 in 10.0 mi Calm Calm - N/A   Overcast
5:15 AM 39.2 °F - 39.2 °F 100% 30.16 in 10.0 mi Calm Calm - N/A   Overcast
5:35 AM 39.2 °F - 39.2 °F 100% 30.17 in 10.0 mi Calm Calm - N/A   Mostly Cloudy
5:55 AM 39.2 °F 37.0 °F 39.2 °F 100% 30.19 in 10.0 mi NNW 3.5 mph - N/A   Mostly Cloudy
6:15 AM 39.2 °F - 39.2 °F 100% 30.19 in 7.0 mi Calm Calm - N/A   Mostly Cloudy
6:35 AM 39.2 °F - 39.2 °F 100% 30.19 in 10.0 mi Calm Calm - N/A   Overcast
6:55 AM 39.2 °F - 39.2 °F 100% 30.20 in 10.0 mi Calm Calm - N/A   Overcast
7:15 AM 39.2 °F 37.0 °F 39.2 °F 100% 30.20 in 10.0 mi NNW 3.5 mph - N/A   Overcast
8:15 AM 39.2 °F 35.0 °F 37.4 °F 93% 30.21 in 10.0 mi North 5.8 mph - N/A   Clear
8:35 AM 41.0 °F 38.0 °F 39.2 °F 93% 30.22 in 10.0 mi North 4.6 mph - N/A   Clear
8:55 AM 42.8 °F 38.0 °F 37.4 °F 81% 30.22 in 10.0 mi NNE 8.1 mph - N/A   Clear
9:15 AM 42.8 °F 38.6 °F 37.4 °F 81% 30.23 in 10.0 mi North 6.9 mph - N/A   Clear
9:35 AM 42.8 °F 38.6 °F 35.6 °F 76% 30.23 in 10.0 mi North 6.9 mph - N/A   Clear
9:55 AM 44.6 °F 39.7 °F 35.6 °F 71% 30.23 in 10.0 mi NNE 9.2 mph 16.1 mph N/A   Clear
10:15 AM 44.6 °F 39.7 °F 33.8 °F 66% 30.24 in 10.0 mi North 9.2 mph - N/A   Scattered Clouds
10:35 AM 44.6 °F 38.8 °F 33.8 °F 66% 30.24 in 10.0 mi NNE 11.5 mph - N/A   Scattered Clouds
10:55 AM 44.6 °F 39.2 °F 32.0 °F 61% 30.24 in 10.0 mi North 10.4 mph 16.1 mph N/A   Scattered Clouds
11:15 AM 46.4 °F 41.5 °F 33.8 °F 62% 30.22 in 10.0 mi North 10.4 mph - N/A   Scattered Clouds
11:35 AM 44.6 °F 41.4 °F 32.0 °F 61% 30.22 in 10.0 mi North 5.8 mph - N/A   Scattered Clouds
11:55 AM 44.6 °F 40.2 °F 33.8 °F 66% 30.20 in 10.0 mi NE 8.1 mph - N/A   Mostly Cloudy
12:15 PM 44.6 °F 40.7 °F 32.0 °F 61% 30.19 in 10.0 mi ENE 6.9 mph - N/A   Overcast
12:35 PM 44.6 °F 42.2 °F 32.0 °F 61% 30.18 in 10.0 mi NNW 4.6 mph - N/A   Overcast
12:55 PM 44.6 °F 40.2 °F 33.8 °F 66% 30.19 in 10.0 mi NNW 8.1 mph - N/A   Overcast
1:15 PM 44.6 °F 42.2 °F 32.0 °F 61% 30.18 in 10.0 mi North 4.6 mph - N/A   Overcast
1:35 PM 44.6 °F 42.2 °F 32.0 °F 61% 30.17 in 10.0 mi North 4.6 mph - N/A   Overcast
1:55 PM 44.6 °F 43.1 °F 33.8 °F 66% 30.17 in 10.0 mi North 3.5 mph - N/A   Overcast
2:15 PM 44.6 °F 42.2 °F 33.8 °F 66% 30.16 in 10.0 mi NNW 4.6 mph - N/A   Overcast
2:35 PM 44.6 °F 42.2 °F 32.0 °F 61% 30.15 in 10.0 mi North 4.6 mph - N/A   Overcast
2:55 PM 44.6 °F 42.2 °F 33.8 °F 66% 30.16 in 10.0 mi NW 4.6 mph - N/A   Overcast
3:15 PM 44.6 °F 42.2 °F 33.8 °F 66% 30.16 in 10.0 mi North 4.6 mph - N/A   Overcast
3:35 PM 44.6 °F - 33.8 °F 66% 30.17 in 10.0 mi Calm Calm - N/A   Overcast
3:55 PM 44.6 °F 42.2 °F 33.8 °F 66% 30.17 in 10.0 mi North 4.6 mph - N/A   Overcast
4:35 PM 44.6 °F 42.2 °F 33.8 °F 66% 30.18 in 10.0 mi NW 4.6 mph - N/A   Overcast
4:55 PM 42.8 °F - 33.8 °F 70% 30.19 in 10.0 mi Calm Calm - N/A   Overcast
5:15 PM 42.8 °F - 33.8 °F 70% 30.20 in 10.0 mi Calm Calm - N/A   Overcast
5:35 PM 42.8 °F - 33.8 °F 70% 30.20 in 10.0 mi Calm Calm - N/A   Overcast
5:55 PM 42.8 °F - 33.8 °F 70% 30.20 in 10.0 mi Calm Calm - N/A   Overcast
6:15 PM 42.8 °F 41.1 °F 33.8 °F 70% 30.20 in 10.0 mi WNW 3.5 mph - N/A   Overcast
6:35 PM 42.8 °F - 33.8 °F 70% 30.21 in 10.0 mi Calm Calm - N/A   Overcast
7:15 PM 42.8 °F - 33.8 °F 70% 30.21 in 10.0 mi Calm Calm - N/A   Overcast
7:35 PM 39.2 °F - 33.8 °F 81% 30.22 in 10.0 mi Calm Calm - N/A   Mostly Cloudy
7:55 PM 39.2 °F 37.0 °F 35.6 °F 87% 30.22 in 10.0 mi North 3.5 mph - N/A   Scattered Clouds
8:15 PM 37.4 °F - 33.8 °F 87% 30.22 in 10.0 mi Calm Calm - N/A   Clear
8:35 PM 35.6 °F - 35.6 °F 100% 30.22 in 10.0 mi Calm Calm - N/A   Clear
8:55 PM 35.6 °F - 33.8 °F 93% 30.22 in 10.0 mi Calm Calm - N/A   Clear
9:15 PM 35.6 °F - 33.8 °F 93% 30.22 in 10.0 mi Calm Calm - N/A   Clear
9:35 PM 33.8 °F - 33.8 °F 100% 30.22 in 10.0 mi Calm Calm - N/A   Clear
9:55 PM 33.8 °F - 33.8 °F 100% 30.21 in 10.0 mi Calm Calm - N/A   Clear
10:15 PM 32.0 °F - 32.0 °F 100% 30.21 in 10.0 mi Calm Calm - N/A   Clear
10:35 PM 32.0 °F - 32.0 °F 100% 30.20 in 10.0 mi Calm Calm - N/A   Clear
10:55 PM 30.2 °F - 30.2 °F 100% 30.21 in 10.0 mi Calm Calm - N/A   Clear
11:15 PM 30.2 °F - 30.2 °F 100% 30.21 in 10.0 mi Calm Calm - N/A   Clear
11:35 PM 30.2 °F - 30.2 °F 100% 30.21 in 0.2 mi Calm Calm - N/A   Overcast
11:55 PM 30.2 °F - 30.2 °F 100% 30.22 in 10.0 mi Calm Calm - N/A   Scattered Clouds